TimeMDT,TemperatureF,Dew PointF,Humidity,Sea Level PressureIn,VisibilityMPH,Wind Direction,Wind SpeedMPH,Gust SpeedMPH,PrecipitationIn,Events,Conditions,WindDirDegrees,DateUTC
12:15 AM,33.3,15.4,48,30.24,10.0,Calm,Calm,-,N/A,,Clear,0,2012-10-08 06:15:00
12:35 AM,32.7,15.6,49,30.24,10.0,Calm,Calm,-,N/A,,Clear,0,2012-10-08 06:35:00
12:55 AM,32.5,15.1,49,30.24,10.0,Calm,Calm,-,N/A,,Clear,0,2012-10-08 06:55:00
1:15 AM,31.8,15.1,50,30.24,10.0,Calm,Calm,-,N/A,,Clear,0,2012-10-08 07:15:00
1:35 AM,32.0,14.4,48,30.24,10.0,Calm,Calm,-,N/A,,Clear,0,2012-10-08 07:35:00
1:55 AM,33.8,9.0,36,30.25,10.0,Calm,Calm,-,N/A,,Clear,0,2012-10-08 07:55:00
2:15 AM,34.2,6.8,32,30.25,10.0,Calm,Calm,-,N/A,,Clear,0,2012-10-08 08:15:00
2:35 AM,34.7,6.3,30,30.25,10.0,Calm,Calm,-,N/A,,Clear,0,2012-10-08 08:35:00
2:55 AM,34.3,6.4,31,30.24,10.0,West,3.5,-,N/A,,Clear,260,2012-10-08 08:55:00
3:15 AM,36.7,4.8,26,30.24,10.0,WNW,5.8,-,N/A,,Clear,290,2012-10-08 09:15:00
3:35 AM,36.5,4.5,26,30.23,10.0,Calm,Calm,-,N/A,,Clear,0,2012-10-08 09:35:00
3:55 AM,36.3,4.1,26,30.23,10.0,NW,5.8,-,N/A,,Clear,320,2012-10-08 09:55:00
4:15 AM,35.1,3.9,27,30.23,10.0,NW,5.8,-,N/A,,Clear,320,2012-10-08 10:15:00
4:35 AM,35.1,4.1,27,30.23,10.0,NNW,3.5,-,N/A,,Clear,340,2012-10-08 10:35:00
4:55 AM,34.0,4.1,28,30.23,10.0,NW,3.5,-,N/A,,Clear,320,2012-10-08 10:55:00
5:15 AM,35.4,3.7,26,30.22,10.0,NW,6.9,-,N/A,,Clear,320,2012-10-08 11:15:00
5:35 AM,36.5,4.1,26,30.22,10.0,NNW,9.2,-,N/A,,Clear,340,2012-10-08 11:35:00
5:55 AM,35.4,4.5,27,30.23,10.0,NW,9.2,-,N/A,,Clear,320,2012-10-08 11:55:00
6:15 AM,34.2,4.5,29,30.23,10.0,NW,6.9,-,N/A,,Clear,310,2012-10-08 12:15:00
6:35 AM,33.3,4.5,30,30.24,10.0,West,8.1,-,N/A,,Clear,280,2012-10-08 12:35:00
6:55 AM,34.2,4.1,28,30.24,10.0,NNW,6.9,-,N/A,,Clear,330,2012-10-08 12:55:00
7:15 AM,32.4,4.1,30,30.23,10.0,Calm,Calm,-,N/A,,Clear,0,2012-10-08 13:15:00
7:35 AM,34.2,4.5,29,30.23,10.0,Calm,Calm,-,N/A,,Clear,0,2012-10-08 13:35:00
7:55 AM,35.1,3.9,27,30.24,10.0,Calm,Calm,-,N/A,,Clear,0,2012-10-08 13:55:00
8:15 AM,35.6,5.5,28,30.23,10.0,Calm,Calm,-,N/A,,Clear,0,2012-10-08 14:15:00
8:35 AM,38.5,6.4,26,30.23,10.0,NNW,11.5,-,N/A,,Clear,340,2012-10-08 14:35:00
8:55 AM,40.6,7.5,26,30.23,10.0,NNW,13.8,17.3,N/A,,Clear,340,2012-10-08 14:55:00
9:15 AM,42.8,7.0,23,30.23,10.0,NNW,8.1,-,N/A,,Clear,340,2012-10-08 15:15:00
9:35 AM,44.8,7.9,22,30.22,10.0,NNW,4.6,-,N/A,,Clear,340,2012-10-08 15:35:00
9:55 AM,47.7,10.0,22,30.21,10.0,North,8.1,-,N/A,,Clear,10,2012-10-08 15:55:00
10:15 AM,49.3,7.7,19,30.20,10.0,North,6.9,-,N/A,,Clear,10,2012-10-08 16:15:00
10:35 AM,54.9,1.2,11,30.19,10.0,SSW,15.0,20.7,N/A,,Clear,200,2012-10-08 16:35:00
10:55 AM,57.6,-1.8,9,30.17,10.0,SSW,19.6,27.6,N/A,,Clear,200,2012-10-08 16:55:00
11:15 AM,59.5,-2.9,8,30.16,10.0,SSW,20.7,32.2,N/A,,Clear,200,2012-10-08 17:15:00
11:35 AM,62.2,-3.3,7,30.15,10.0,SSW,17.3,28.8,N/A,,Clear,210,2012-10-08 17:35:00
11:55 AM,61.7,-4.7,7,30.15,10.0,SW,21.9,28.8,N/A,,Clear,230,2012-10-08 17:55:00
12:15 PM,62.8,-6.2,6,30.14,10.0,SSW,20.7,29.9,N/A,,Clear,210,2012-10-08 18:15:00
12:35 PM,64.0,-6.0,6,30.14,10.0,SSW,18.4,31.1,N/A,,Clear,210,2012-10-08 18:35:00
12:55 PM,64.4,-7.1,5,30.13,10.0,SW,21.9,28.8,N/A,,Clear,220,2012-10-08 18:55:00
1:15 PM,65.5,-5.6,6,30.13,10.0,SW,21.9,28.8,N/A,,Clear,220,2012-10-08 19:15:00
1:35 PM,65.7,-4.9,6,30.12,10.0,SW,20.7,35.7,N/A,,Clear,230,2012-10-08 19:35:00
1:55 PM,66.0,-4.7,6,30.11,7.0,SW,21.9,34.5,N/A,,Clear,230,2012-10-08 19:55:00
2:15 PM,65.1,-4.7,6,30.10,10.0,SW,24.2,33.4,N/A,,Clear,220,2012-10-08 20:15:00
2:35 PM,66.9,-3.6,6,30.10,10.0,SW,24.2,32.2,N/A,,Clear,230,2012-10-08 20:35:00
2:55 PM,63.0,-3.3,7,30.10,10.0,SW,21.9,27.6,N/A,,Clear,220,2012-10-08 20:55:00
3:15 PM,63.5,-4.7,6,30.10,10.0,WSW,21.9,29.9,N/A,,Clear,250,2012-10-08 21:15:00
3:35 PM,64.0,-3.1,7,30.10,10.0,WSW,16.1,29.9,N/A,,Clear,250,2012-10-08 21:35:00
3:55 PM,64.9,-4.0,6,30.10,10.0,WSW,17.3,29.9,N/A,,Clear,250,2012-10-08 21:55:00
4:15 PM,65.3,-6.3,6,30.10,10.0,West,23.0,28.8,N/A,,Clear,260,2012-10-08 22:15:00
4:55 PM,64.6,-4.2,6,30.10,10.0,WSW,13.8,21.9,N/A,,Clear,250,2012-10-08 22:55:00
5:15 PM,64.2,-7.2,5,30.10,10.0,West,20.7,28.8,N/A,,Clear,260,2012-10-08 23:15:00
5:35 PM,63.1,-8.7,5,30.10,10.0,WSW,19.6,28.8,N/A,,Clear,250,2012-10-08 23:35:00
5:55 PM,62.1,-7.1,6,30.11,10.0,West,24.2,32.2,N/A,,Clear,260,2012-10-08 23:55:00
6:35 PM,57.7,-5.3,8,30.12,10.0,WSW,17.3,24.2,N/A,,Clear,250,2012-10-09 00:35:00
6:55 PM,56.5,-3.5,9,30.13,10.0,WSW,15.0,19.6,N/A,,Clear,250,2012-10-09 00:55:00
7:15 PM,55.6,-2.0,10,30.14,10.0,WSW,12.7,-,N/A,,Clear,240,2012-10-09 01:15:00
7:35 PM,54.5,-1.3,10,30.14,10.0,WSW,16.1,24.2,N/A,,Clear,240,2012-10-09 01:35:00
7:55 PM,54.0,-1.5,10,30.15,10.0,WSW,12.7,20.7,N/A,,Clear,240,2012-10-09 01:55:00
8:15 PM,52.0,-0.9,11,30.15,10.0,WSW,15.0,-,N/A,,Clear,240,2012-10-09 02:15:00
8:35 PM,51.1,-1.3,12,30.15,10.0,WSW,15.0,-,N/A,,Clear,240,2012-10-09 02:35:00
8:55 PM,50.5,-0.4,12,30.15,10.0,WSW,12.7,18.4,N/A,,Clear,250,2012-10-09 02:55:00
9:15 PM,51.6,-0.2,12,30.15,10.0,West,11.5,19.6,N/A,,Clear,260,2012-10-09 03:15:00
10:15 PM,49.5,2.1,14,30.17,10.0,SW,10.4,-,N/A,,Clear,220,2012-10-09 04:15:00
10:35 PM,46.0,4.5,18,30.17,10.0,SW,10.4,-,N/A,,Clear,220,2012-10-09 04:35:00
11:15 PM,48.4,4.6,17,30.17,10.0,West,6.9,-,N/A,,Clear,270,2012-10-09 05:15:00
11:35 PM,46.2,5.2,19,30.17,10.0,NW,6.9,-,N/A,,Clear,310,2012-10-09 05:35:00
11:55 PM,47.3,3.4,16,30.15,10.0,NW,4.6,-,N/A,,Clear,310,2012-10-09 05:55:00